Regional Weather Roundup
Issued by NWS Cleveland, OH

Home | Current Version | Previous Version | Text Only | Print | Product List | Glossary Off
Versions: 1 2 3 4 5 6 7 8 9 10 11 12 13 14 15 16 17 18 19 20 21 22 23 24 25 26 27 28 29 30 31 32 33 34 35 36 37 38 39 40 41 42 43 44 45 46 47 48 49 50

000
ASUS41 KCLE 040610
RWRCLE
OHIO REGIONAL WEATHER ROUNDUP
NATIONAL WEATHER SERVICE CLEVELAND, OH
200 AM EDT MON MAY 04 2015

NOTE: "FAIR" INDICATES FEW OR NO CLOUDS BELOW 12,000 FEET WITH NO
SIGNIFICANT WEATHER AND/OR OBSTRUCTIONS TO VISIBILITY.

OHZ001>008-015>018-024>027-034-035-043-044-040700-
   NORTHWEST OHIO

CITY           SKY/WX    TMP DP  RH WIND       PRES   REMARKS
DEFIANCE       PTCLDY    63  48  58 S7        30.05R
FINDLAY        CLEAR     59  46  62 S9        30.06R
TOLEDO EXPRESS MOCLDY    66  46  48 S9        30.05R
TOLEDO EXEC    PTCLDY    63  46  54 S8        30.06R
LIMA           PTCLDY    60  46  59 S7        30.08R
$$

OHZ009>014-019>023-028>033-038-089-040700-
   NORTHEAST OHIO

CITY           SKY/WX    TMP DP  RH WIND       PRES   REMARKS
CLE-HOPKINS    MOCLDY    65  43  44 S7        30.11R
CLE-LAKEFRONT  PTCLDY    66  43  43 S10       30.07R
CUY CO. ARPT   NOT AVBL
LORAIN-ELYRIA  PTCLDY    58  45  62 S5        30.09R
ASHTABULA      PTCLDY    58  43  57 S5        30.11R
AKRON-CANTON   PTCLDY    62  42  47 S5        30.12R
WOOSTER        CLEAR     53  44  71 CALM      30.12R
MANSFIELD      PTCLDY    60  44  55 S6        30.11R
YOUNGSTOWN     MOCLDY    63  41  44 S6        30.12R
$$

OHZ042-051>053-060>062-070>072-077>081-040700-
  SOUTHWEST OHIO

CITY           SKY/WX    TMP DP  RH WIND       PRES   REMARKS
CINC-COVINGTON CLEAR     58  49  72 S6        30.10R
CINC-LUNKEN    CLEAR     53  51  93 CALM      30.11R
HAMILTON       CLEAR     54  49  83 CALM      30.10R
DAYTON         CLEAR     64  47  53 S7        30.11R
WRIGHT-PAT AFB CLEAR     59  47  63 E2        30.10R
DAYTON GENERAL FAIR      61  46  57 S6        30.10R
WILMINGTON     CLEAR     58  44  60 S5        30.11R
$$

OHZ036-037-039>041-045>050-054>059-063>069-073>076-082>088-040700-
  CENTRAL AND SOUTHEAST OHIO

CITY           SKY/WX    TMP DP  RH WIND       PRES   REMARKS
COLUMBUS       CLEAR     57  47  69 CALM      30.10R
OSU AIRPORT    CLEAR     61  43  51 CALM      30.10R
BOLTON FIELD   CLEAR     57  45  62 S9        30.11R
RICKENBACK AFB CLEAR     56  45  66 CALM      30.10R
NEWARK         CLEAR     52  46  80 CALM      30.11R
MARION         CLEAR     58  44  60 S7        30.10R
LANCASTER      CLEAR     50  46  86 CALM      30.11S
ZANESVILLE     CLEAR     53  44  71 CALM      30.12R
NEW PHILLY     CLEAR     54  45  71 CALM      30.13R
$$



USA.gov is the U.S. government's official web portal to all federal, state and local government web resources and services.